Location: Buchberg
(46.9333°N, 15.8500°E)
Time: 19:57:15
(UTC+00:00)

BREEZE-M DEB (TANK) - Pass Details

Date: 14 July 2020
Orbit: 427 x 13239 km, 46.0° (Epoch: 06 August)

Event Time Altitude Azimuth Distance (km) Brightness Sun altitude
Rises 00:08:15 0° 259° (W) 6,332 7.9 -19.8°
Reaches altitude 10° 00:13:55 10° 259° (W) 3,906 6.8 -19.6°
Maximum altitude 00:21:36 78° 175° (S) 719 3.2 -19.1°
Drops below altitude 10° 00:24:49 10° 88° (E) 1,679 5.6 -19.0°
Sets 00:26:21 0° 87° (E) 2,425 6.4 -18.9°
